SPCBI LKPR-EPWR

Flight info

Callsign SPCBI
Flight time 0h 34m
Altitude 15500
Route LKPR/30 DCT LKPRA DCT LKPRB DCT LKPRN DCT EPWRK DCT EPWRS DCT EPWR/29
Aircraft SF50/L-SBDGRWY/LB2U2

Departure

Time 2026-05-07 17:39
Airport Václav Havel Airport Prague (LKPR)

Arrival

Time 2026-05-07 18:13
Airport Copernicus Wrocław Airport (EPWR)
Time Latitude Longitude Altitude Speed Heading
2026-05-07 17:27 50.09677 14.28539 1208 ft 0 kts 156°
2026-05-07 17:34 50.09675 14.28541 1208 ft 2 kts 125°
2026-05-07 17:34 50.09684 14.28540 1208 ft 5 kts 248°
2026-05-07 17:34 50.09740 14.28488 1206 ft 18 kts 338°
2026-05-07 17:34 50.09796 14.28461 1203 ft 0 kts 346°
2026-05-07 17:35 50.09899 14.28403 1197 ft 34 kts 318°
2026-05-07 17:35 50.09969 14.28208 1191 ft 13 kts 298°
2026-05-07 17:35 50.09980 14.28069 1188 ft 17 kts 239°
2026-05-07 17:35 50.09887 14.27936 1193 ft 19 kts 216°
2026-05-07 17:36 50.09775 14.27812 1202 ft 20 kts 215°
2026-05-07 17:36 50.09663 14.27692 1212 ft 20 kts 214°
2026-05-07 17:36 50.09543 14.27571 1220 ft 21 kts 218°
2026-05-07 17:36 50.09531 14.27556 1220 ft 0 kts 218°
2026-05-07 17:38 50.09528 14.27552 1220 ft 7 kts 218°
2026-05-07 17:38 50.09444 14.27444 1218 ft 21 kts 233°
2026-05-07 17:38 50.09455 14.27328 1214 ft 0 kts 309°
2026-05-07 17:38 50.09493 14.27246 1210 ft 37 kts 306°
2026-05-07 17:39 50.09757 14.26724 1315 ft 69 kts 313°
2026-05-07 17:39 50.10203 14.26576 1529 ft 92 kts 42°
2026-05-07 17:39 50.10393 14.27641 1890 ft 111 kts 71°
2026-05-07 17:39 50.10951 14.28371 2438 ft 113 kts
2026-05-07 17:40 50.11797 14.28634 2879 ft 142 kts 13°
2026-05-07 17:40 50.12898 14.28696 2811 ft 169 kts 351°
2026-05-07 17:40 50.14065 14.28386 2466 ft 170 kts 347°
2026-05-07 17:40 50.15217 14.27710 2461 ft 189 kts 336°
2026-05-07 17:41 50.16326 14.26612 2459 ft 190 kts 317°
2026-05-07 17:41 50.17220 14.25064 2458 ft 201 kts 313°
2026-05-07 17:41 50.18208 14.23349 2465 ft 220 kts 313°
2026-05-07 17:41 50.19240 14.21539 2456 ft 223 kts 313°
2026-05-07 17:42 50.20403 14.19953 2443 ft 225 kts 336°
2026-05-07 17:42 50.21933 14.19874 2446 ft 227 kts 18°
2026-05-07 17:42 50.23241 14.21182 2476 ft 227 kts 34°
2026-05-07 17:42 50.24528 14.22483 3297 ft 208 kts 24°
2026-05-07 17:43 50.25772 14.23338 4416 ft 182 kts 20°
2026-05-07 17:43 50.26772 14.24465 5326 ft 180 kts 42°
2026-05-07 17:43 50.27533 14.26077 6010 ft 187 kts 60°
2026-05-07 17:43 50.28143 14.27906 6667 ft 192 kts 59°
2026-05-07 17:44 50.28793 14.29724 7382 ft 192 kts 59°
2026-05-07 17:44 50.29425 14.31550 8063 ft 195 kts 61°
2026-05-07 17:44 50.30066 14.33422 8744 ft 197 kts 61°
2026-05-07 17:44 50.30721 14.35329 9441 ft 202 kts 62°
2026-05-07 17:45 50.31382 14.37254 10187 ft 200 kts 63°
2026-05-07 17:45 50.32042 14.39179 10863 ft 201 kts 62°
2026-05-07 17:45 50.32727 14.41180 11466 ft 205 kts 63°
2026-05-07 17:45 50.33394 14.43134 12063 ft 209 kts 62°
2026-05-07 17:46 50.34073 14.45115 12695 ft 210 kts 63°
2026-05-07 17:46 50.34771 14.47166 13309 ft 212 kts 63°
2026-05-07 17:46 50.35471 14.49218 13903 ft 215 kts 63°
2026-05-07 17:46 50.36165 14.51255 14451 ft 216 kts 63°
2026-05-07 17:47 50.36878 14.53346 15005 ft 218 kts 63°
2026-05-07 17:47 50.37594 14.55451 15534 ft 219 kts 63°
2026-05-07 17:47 50.38318 14.57573 16029 ft 224 kts 63°
2026-05-07 17:47 50.39090 14.59849 16055 ft 248 kts 63°
2026-05-07 17:48 50.39931 14.62322 16068 ft 264 kts 63°
2026-05-07 17:48 50.40813 14.64920 16067 ft 275 kts 63°
2026-05-07 17:48 50.41725 14.67614 16067 ft 283 kts 63°
2026-05-07 17:48 50.42655 14.70365 16070 ft 289 kts 63°
2026-05-07 17:49 50.43604 14.73175 16069 ft 294 kts 63°
2026-05-07 17:49 50.44566 14.76026 16069 ft 299 kts 63°
2026-05-07 17:49 50.45548 14.78934 16055 ft 304 kts 63°
2026-05-07 17:49 50.46530 14.81847 16054 ft 309 kts 63°
2026-05-07 17:50 50.47536 14.84847 16055 ft 312 kts 63°
2026-05-07 17:50 50.48552 14.87866 16059 ft 314 kts 63°
2026-05-07 17:50 50.49574 14.90907 16056 ft 315 kts 63°
2026-05-07 17:50 50.50598 14.93964 16057 ft 317 kts 63°
2026-05-07 17:51 50.51624 14.97030 16055 ft 317 kts 63°
2026-05-07 17:51 50.52651 15.00103 16055 ft 318 kts 63°
2026-05-07 17:51 50.53677 15.03173 16038 ft 318 kts 63°
2026-05-07 17:51 50.54707 15.06264 16041 ft 319 kts 63°
2026-05-07 17:52 50.55740 15.09355 16039 ft 320 kts 63°
2026-05-07 17:52 50.56778 15.12457 16043 ft 320 kts 63°
2026-05-07 17:52 50.57809 15.15568 16042 ft 321 kts 63°
2026-05-07 17:52 50.58838 15.18680 16043 ft 320 kts 63°
2026-05-07 17:53 50.59856 15.21746 16044 ft 320 kts 63°
2026-05-07 17:53 50.60901 15.24896 16043 ft 320 kts 64°
2026-05-07 17:53 50.61916 15.27969 16038 ft 320 kts 64°
2026-05-07 17:53 50.62942 15.31078 16040 ft 320 kts 64°
2026-05-07 17:54 50.63967 15.34185 16038 ft 320 kts 64°
2026-05-07 17:54 50.64993 15.37302 16036 ft 320 kts 64°
2026-05-07 17:54 50.66017 15.40412 16036 ft 320 kts 64°
2026-05-07 17:54 50.67041 15.43524 16037 ft 320 kts 64°
2026-05-07 17:55 50.68061 15.46642 16042 ft 319 kts 64°
2026-05-07 17:55 50.69081 15.49758 16045 ft 320 kts 64°
2026-05-07 17:55 50.70101 15.52874 16050 ft 319 kts 64°
2026-05-07 17:55 50.71122 15.55987 16044 ft 320 kts 64°
2026-05-07 17:56 50.72138 15.59105 16045 ft 320 kts 64°
2026-05-07 17:56 50.73157 15.62229 16040 ft 320 kts 64°
2026-05-07 17:56 50.74181 15.65369 16041 ft 321 kts 64°
2026-05-07 17:56 50.75200 15.68506 16045 ft 321 kts 64°
2026-05-07 17:57 50.76220 15.71645 16044 ft 321 kts 64°
2026-05-07 17:57 50.76894 15.73717 16043 ft 321 kts 64°
2026-05-07 17:57 50.78199 15.77736 15112 ft 291 kts 64°
2026-05-07 17:57 50.79143 15.80655 12922 ft 306 kts 64°
2026-05-07 17:58 50.80099 15.83622 11193 ft 297 kts 63°
2026-05-07 17:58 50.81025 15.86479 10059 ft 282 kts 63°
2026-05-07 17:58 50.81917 15.89243 9987 ft 288 kts 64°
2026-05-07 17:58 50.82833 15.92091 9995 ft 293 kts 63°
2026-05-07 17:59 50.83762 15.94981 9995 ft 296 kts 64°
2026-05-07 17:59 50.84703 15.97905 10000 ft 299 kts 64°
2026-05-07 17:59 50.85649 16.00848 10002 ft 301 kts 64°
2026-05-07 17:59 50.86599 16.03816 10001 ft 303 kts 64°
2026-05-07 18:00 50.87555 16.06793 9999 ft 304 kts 64°
2026-05-07 18:00 50.88514 16.09785 10008 ft 306 kts 64°
2026-05-07 18:00 50.89475 16.12793 10009 ft 305 kts 64°
2026-05-07 18:00 50.90432 16.15790 10009 ft 303 kts 64°
2026-05-07 18:01 50.91368 16.18728 10012 ft 303 kts 64°
2026-05-07 18:01 50.92315 16.21708 10004 ft 302 kts 63°
2026-05-07 18:01 50.93261 16.24684 10003 ft 303 kts 63°
2026-05-07 18:01 50.94204 16.27654 9968 ft 290 kts 63°
2026-05-07 18:02 50.95882 16.32927 6978 ft 263 kts 63°
2026-05-07 18:02 50.96691 16.35477 5522 ft 256 kts 63°
2026-05-07 18:02 50.97456 16.37906 5070 ft 235 kts 63°
2026-05-07 18:03 50.98224 16.40335 5065 ft 256 kts 63°
2026-05-07 18:03 50.99019 16.42846 5070 ft 254 kts 63°
2026-05-07 18:03 50.99818 16.45383 5072 ft 258 kts 63°
2026-05-07 18:03 51.00622 16.47934 5072 ft 257 kts 63°
2026-05-07 18:04 51.01421 16.50470 5072 ft 257 kts 63°
2026-05-07 18:04 51.02218 16.53011 5078 ft 257 kts 63°
2026-05-07 18:04 51.03006 16.55529 5082 ft 246 kts 63°
2026-05-07 18:04 51.03734 16.57853 5076 ft 223 kts 63°
2026-05-07 18:05 51.04389 16.59949 5066 ft 200 kts 63°
2026-05-07 18:05 51.04885 16.61858 5063 ft 177 kts 78°
2026-05-07 18:05 51.05051 16.63761 4699 ft 176 kts 82°
2026-05-07 18:05 51.05250 16.65679 4322 ft 174 kts 81°
2026-05-07 18:06 51.05442 16.67563 3953 ft 173 kts 81°
2026-05-07 18:06 51.05628 16.69436 3609 ft 169 kts 80°
2026-05-07 18:06 51.05809 16.71263 3279 ft 165 kts 80°
2026-05-07 18:06 51.05985 16.73049 2963 ft 162 kts 79°
2026-05-07 18:07 51.06150 16.74736 2937 ft 152 kts 79°
2026-05-07 18:07 51.06320 16.76437 2938 ft 160 kts 79°
2026-05-07 18:07 51.06491 16.78174 2884 ft 155 kts 79°
2026-05-07 18:07 51.06662 16.79907 2442 ft 162 kts 78°
2026-05-07 18:08 51.06833 16.81657 2141 ft 158 kts 78°
2026-05-07 18:08 51.06999 16.83367 1833 ft 155 kts 77°
2026-05-07 18:08 51.07163 16.85033 1507 ft 154 kts 79°
2026-05-07 18:08 51.07321 16.86656 1457 ft 145 kts 79°
2026-05-07 18:09 51.07461 16.88330 1508 ft 151 kts 86°
2026-05-07 18:09 51.07246 16.89852 1494 ft 136 kts 104°
2026-05-07 18:09 51.07022 16.91224 1495 ft 122 kts 99°
2026-05-07 18:09 51.06830 16.92485 1498 ft 112 kts 99°
2026-05-07 18:10 51.06646 16.93647 1493 ft 104 kts 101°
2026-05-07 18:10 51.06473 16.94723 1491 ft 96 kts 98°
2026-05-07 18:10 51.06488 16.95725 1501 ft 92 kts 58°
2026-05-07 18:10 51.06973 16.96456 1478 ft 102 kts 24°
2026-05-07 18:11 51.07645 16.96429 1386 ft 98 kts 338°
2026-05-07 18:11 51.08001 16.95982 1302 ft 101 kts 309°
2026-05-07 18:11 51.08400 16.94653 1135 ft 94 kts 304°
2026-05-07 18:11 51.08686 16.93782 996 ft 87 kts 301°
2026-05-07 18:12 51.08953 16.92902 869 ft 89 kts 301°
2026-05-07 18:12 51.09225 16.92014 734 ft 90 kts 299°
2026-05-07 18:12 51.09496 16.91136 607 ft 90 kts 296°
2026-05-07 18:12 51.09764 16.90210 504 ft 95 kts 297°
2026-05-07 18:13 51.10043 16.89295 406 ft 81 kts 295°
2026-05-07 18:13 51.10253 16.88603 398 ft 59 kts 294°
2026-05-07 18:13 51.10414 16.88073 398 ft 50 kts 295°
2026-05-07 18:13 51.10569 16.87588 395 ft 48 kts 297°
2026-05-07 18:14 51.10641 16.87211 396 ft 23 kts 229°
2026-05-07 18:14 51.10603 16.87171 396 ft 0 kts 206°
2026-05-07 18:14 51.10585 16.87157 397 ft 12 kts 207°
2026-05-07 18:15 51.10463 16.87074 397 ft 22 kts 173°
2026-05-07 18:15 51.10392 16.87245 397 ft 23 kts 116°
2026-05-07 18:15 51.10313 16.87509 397 ft 30 kts 115°
2026-05-07 18:15 51.10209 16.87843 397 ft 36 kts 118°
2026-05-07 18:16 51.10070 16.88126 397 ft 18 kts 130°
2026-05-07 18:16 51.10023 16.88126 397 ft 0 kts 221°